Regional Weather Roundup
Issued by NWS Midland/Odessa, TX

Skip options and go directly to product.
Home | Oldest Version | Previous Version | Current Version | All | Text Only | Save Text | Print | Product List | Glossary On

Skip product version selection by date and time.   
015
ASUS44 KMAF 251710
RWRMAF
MIDLAND AREA WEATHER ROUNDUP
NATIONAL WEATHER SERVICE MIDLAND TX
1200 PM CDT SUN SEP 25 2016

...IN SOUTHWEST TEXAS AND SOUTHEAST NEW MEXICO...

CITY           SKY/WX    TMP DP  RH WIND       PRES   REMARKS
ALPINE         CLOUDY    61  58  91 CALM      30.24R
ANDREWS        NOT AVBL
ARTESIA        CLOUDY    70  48  46 N22G31    30.22S
BIG SPRING     CLOUDY    73  66  80 NE14      30.16R
CARLSBAD       CLOUDY    70  43  37 NW20      30.17R
DRYDEN           N/A     68  67  96 NE9       30.07R
FORT STOCKTON  PTSUNNY   69  60  73 W3        30.12R
GUAD PASS      CLOUDY    67  46  47 NE28      30.23R
HOBBS          PTSUNNY   70  59  68 N13       30.19R
MARFA          LGT RAIN N/A N/A N/A W8        30.20R
MIDLAND AIRPK  CLOUDY    72  62  69 E7        30.15R
MIDLAND INTL   CLOUDY    72  62  71 NE9       30.14R
ODESSA         CLOUDY    72  60  66 E14       30.15R
PECOS          CLOUDY    71  62  74 N6        30.12S
PRESIDIO       NOT AVBL
SEMINOLE       CLOUDY    72  60  67 NE9       30.19R
SNYDER           N/A     69  63  81 CALM      30.15R
WINK           CLOUDY    75  62  64 NE5       30.11R
$$
...OTHER STATIONS IN TEXAS...

CITY           SKY/WX    TMP DP  RH WIND       PRES   REMARKS
ABILENE        CLOUDY    71  66  84 NE10      30.11R
AMARILLO       SUNNY     68  41  37 N29G36    30.31S
AUSTIN         CLOUDY    81  75  82 W5        29.99F
BROWNSVILLE    MOSUNNY   93  73  52 SE20G28   29.93F HX 102
CORPUS CHRISTI CLOUDY    85  75  72 SE14      29.96R
DALLAS FTW     CLOUDY    76  71  85 NW10      30.04S
DEL RIO        LGT RAIN  70  69  97 N5        29.98R
EL PASO        PTSUNNY   75  32  20 N13       30.15S
HOUSTON INT    CLOUDY    81  74  79 SE6       30.00S
LUBBOCK        CLOUDY    64  57  78 N24G32    30.20R
SAN ANGELO     RAIN      68  66  93 E6        30.13R FOG
SAN ANTONIO    CLOUDY    81  72  74 SE5       29.99F
WACO           LGT RAIN  73  71  93 N12       30.01F FOG
WICHITA FALLS  NOT AVBL
$$
...OTHER LOCATIONS IN NEW MEXICO...

CITY           SKY/WX    TMP DP  RH WIND       PRES   REMARKS
ALAMAGORDO     MOSUNNY   68  36  30 S5        30.18S
ALBUQUERQUE    PTSUNNY   66  33  29 E26G36    30.34S
CANNON AFB     MOSUNNY   63  40  42 NE31G41   30.29S
CLOVIS         MOSUNNY   63  39  42 NE26G38   30.30S
HOLLOMAN AFB   SUNNY     70  35  27 VRB2      30.15F
ROSWELL        CLOUDY    66  45  46 N22       30.24S
RUIDOSO        CLOUDY    59  32  36 NE6       30.38F
SANTA FE       CLOUDY    61  32  33 N14       30.40R
TRUTH OR CONSE PTSUNNY   70  31  23 NE23G37   30.25R
TUCUMCARI      CLOUDY    66  36  32 NE21G32   30.35S
$$

USA.gov is the U.S. government's official web portal to all federal, state and local government web resources and services.